Вернуться в каталог

ATLAS 5 CENTAUR DEB

LostHEO
NORAD 46862·DEBRIS·🇺🇸 United States

Запущен Oct 17, 2018 с Cape Canaveral Space Force Station

Loading…

Ближайшие Пролёты (ближайшие 24 часа)

TLE

УстаревшееSource: Space-Track

Эпоха: Jul 13, 2024, 11:30 UTC

1 46862U 18079DT  24195.47924339 -.00000053  00000-0  00000+0 0  9991
2 46862  11.0677 129.2711 5109835 107.6729 312.4559  1.50438403 20320

Отслеживайте ATLAS 5 CENTAUR DEB в реальном времени с AllMySat

Download on the App Store